Weather History for MROC - July, 2013

Change the Weather History Date:

Thursday, July 25, 2013

  Actual Average Record
Temperature  
Mean Temperature 74 °F -  
Max Temperature 81 °F 80 °F 88 °F (2014)
Min Temperature 68 °F 64 °F 62 °F (1998)
Cooling Degree Days 10    
Growing Degree Days 24 (Base 50)    
Moisture  
Dew Point 66 °F    
Average Humidity 79    
Maximum Humidity 100    
Minimum Humidity 53    
Precipitation  
Precipitation 0.28 in 0.34 in - ()
Sea Level Pressure  
Sea Level Pressure 29.96 in    
Wind  
Wind Speed 8 mph ()    
Max Wind Speed 14 mph    
Max Gust Speed -    
Visibility 6.2 miles    
Events Fog , Rain , Thunderstorm    
Averages and records for this station are not official NWS values.
T = Trace of Precipitation, MM = Missing Value Source: Averaged Metar Reports

Daily Weather History Graph

Daily Weather History Graph

Search for Another Location

Airport or City:

Trip Planner

Search our weather history database for the weather conditions in past years. The results will help you decide how hot, cold, wet, or windy it might be!

Date:

Astronomy

Jul. 25, 2013 Rise Set
Actual Time 5:25 AM CST 6:01 PM CST
Civil Twilight 5:02 AM CST 6:23 PM CST
Nautical Twilight 4:36 AM CST 6:49 PM CST
Astronomical Twilight 4:10 AM CST 7:16 PM CST
Moon 8:35 PM CST (7/25) 8:06 AM CST (7/25)
Length of Visible Light 13h 20m
Length of Day
12h 35m
Waning Gibbous, 88% of the Moon is Illuminated
Jul 25
Waning Gibbous
Jul 29
Last Quarter
Aug 6
New
Aug 14
First Quarter
Aug 20
Full

Hourly Weather History & Observations

Time (CST) Temp. Heat Index Dew Point Humidity Pressure Visibility Wind Dir Wind Speed Gust Speed Precip Events Conditions
12:00 AM 72 °F - 64 °F 68% 29.76 in 12 mi ESE 9.2 mph - -   Scattered Clouds
12:00 AM 71.6 °F - 64.4 °F 78% 29.95 in 6.2 mi ESE 9.2 mph - N/A   Scattered Clouds
1:00 AM 71.6 °F - 62.6 °F 73% 29.95 in 6.2 mi ESE 9.2 mph - N/A   Scattered Clouds
2:00 AM 71.6 °F - 62.6 °F 73% 29.93 in 6.2 mi East 6.9 mph - N/A   Scattered Clouds
3:00 AM 72 °F - 63 °F 66% 29.77 in 12 mi East 5.8 mph - -   Scattered Clouds
3:00 AM 71.6 °F - 62.6 °F 73% 29.95 in 6.2 mi East 5.8 mph - N/A   Scattered Clouds
4:00 AM 68.0 °F - 64.4 °F 88% 29.95 in 6.2 mi ESE 5.8 mph - N/A Rain Light Rain
5:00 AM 69.8 °F - 66.2 °F 88% 29.97 in 6.2 mi NNE 8.1 mph - N/A   Mostly Cloudy
6:00 AM 70 °F - 64 °F 77% 29.78 in 12 mi East 5.8 mph - -   Scattered Clouds
6:00 AM 69.8 °F - 64.4 °F 83% 29.97 in 6.2 mi East 5.8 mph - N/A   Mostly Cloudy
7:00 AM 71.6 °F - 64.4 °F 78% 29.98 in 6.2 mi East 4.6 mph - N/A   Mostly Cloudy
8:00 AM 73.4 °F - 64.4 °F 73% 29.98 in 6.2 mi ESE 11.5 mph - N/A   Mostly Cloudy
9:00 AM 78 °F - 64 °F 53% 29.78 in 12 mi ESE 11.5 mph - -   Scattered Clouds
9:00 AM 78.8 °F - 64.4 °F 61% 29.98 in 6.2 mi ESE 11.5 mph - N/A   Mostly Cloudy
10:00 AM 82.4 °F 83.9 °F 64.4 °F 54% 29.97 in 6.2 mi ESE 10.4 mph - N/A   Mostly Cloudy
11:00 AM 80.6 °F 81.8 °F 62.6 °F 54% 29.99 in 6.2 mi ESE 8.1 mph - N/A   Mostly Cloudy
11:23 AM 77.0 °F - 68.0 °F 74% 30.00 in 6.2 mi SW 6.9 mph - N/A   Mostly Cloudy
12:00 PM 75.2 °F - 69.8 °F 83% 30.00 in 6.2 mi WSW 11.5 mph - N/A   Mostly Cloudy
1:00 PM 73.4 °F - 69.8 °F 88% 30.00 in 6.2 mi West 8.1 mph - N/A Rain Light Rain
2:00 PM 75.2 °F - 71.6 °F 89% 30.00 in 6.2 mi West 8.1 mph - N/A   Mostly Cloudy
3:00 PM 75 °F - 69 °F 77% 29.79 in 12 mi WSW 12.7 mph - -   Overcast
3:00 PM 75.2 °F - 69.8 °F 83% 29.98 in 6.2 mi WSW 12.7 mph - N/A   Mostly Cloudy
4:00 PM 73.4 °F - 68.0 °F 83% 29.98 in 6.2 mi WSW 11.5 mph - N/A Rain Light Rain
5:00 PM 71.6 °F - 69.8 °F 94% 30.01 in 3.1 mi WSW 13.8 mph - N/A Rain Light Rain
5:35 PM 71.6 °F - 69.8 °F 94% 30.01 in 0.9 mi WSW 6.9 mph - N/A   Mostly Cloudy
6:00 PM 71 °F - 70 °F 94% 29.87 in 1 mi WSW 8.1 mph - -   Mist
6:00 PM 71.6 °F - 69.8 °F 94% 30.03 in 0.7 mi WSW 8.1 mph - N/A   Mostly Cloudy
7:00 PM 69.8 °F - 68.0 °F 94% 30.05 in 0.5 mi SW 4.6 mph - N/A Fog , Thunderstorm Fog
7:10 PM 69.8 °F - 69.8 °F 100% 30.06 in 0.9 mi SSW 4.6 mph - N/A Thunderstorm Mostly Cloudy
8:00 PM 69.8 °F - 69.8 °F 100% 30.05 in 6.2 mi ENE 6.9 mph - N/A   Mostly Cloudy
9:00 PM 71.6 °F - 66.2 °F 83% 30.05 in - NNE 6.9 mph - N/A   Clear
10:00 PM 73.4 °F - 64.4 °F 73% 30.02 in - ESE 10.4 mph - N/A   Clear
11:00 PM 73.4 °F - 64.4 °F 73% 30.03 in - East 5.8 mph - N/A   Clear